Regional Weather Roundup
Issued by NWS

Home | Current Version | Previous Version | Graphics & Text | Print | Product List | Glossary On
Versions: 1 2 3 4 5 6 7 8 9 10 11 12 13 14 15 16 17 18 19 20 21 22 23 24 25 26 27 28 29 30 31 32 33 34 35 36 37 38 39 40 41 42 43 44 45 46 47 48 49 50
000
ASUS43 KOAX 192102
RWRNE

WEATHER ROUNDUP FOR NEBRASKA
NATIONAL WEATHER SERVICE OMAHA NE
400 PM CDT SUN APR 19 2015

NOTES: SATELLITE DATA IS BEING USED TO AUGMENT CLOUD COVER ABOVE
       12000 FEET.
       "FAIR" INDICATES FEW OR NO CLOUDS BELOW 12,000 FEET WITH NO
       SIGNIFICANT WEATHER AND/OR OBSTRUCTIONS TO VISIBILITY.

  * THESE STATIONS DO NOT REPORT WEATHER SUCH AS RAIN...SNOW OR FOG.

NEZ001>004-019>022-054>056-192200-
NEBRASKA PANHANDLE

CITY           SKY/WX    TMP DP  RH WIND       PRES   REMARKS
SCOTTSBLUFF    PTSUNNY   48  21  34 NW22G31   30.04F
ALLIANCE       PTSUNNY   49  21  33 NW24G35   30.00F
CHADRON        CLOUDY    53  24  32 NW18G26   30.01F
SIDNEY         PTSUNNY   50  23  34 NW26G37   30.03F
$$

NEZ057>060-069>072-079>082-192200-
SOUTHWEST NEBRASKA

CITY           SKY/WX    TMP DP  RH WIND       PRES   REMARKS
NORTH PLATTE   PTSUNNY   53  25  33 N25G33    29.94F
IMPERIAL       CLOUDY    51  24  34 N25G36    29.99F
LEXINGTON      CLOUDY    53  32  45 N25G31    29.91F
MCCOOK         CLOUDY    54  24  31 NW31G38   29.94F
$$

NEZ005>010-023>029-035>040-094-192200-
NORTH CENTRAL NEBRASKA

CITY           SKY/WX    TMP DP  RH WIND       PRES   REMARKS
VALENTINE      CLOUDY    50  26  39 N22G36    29.93F
AINSWORTH      CLOUDY    50  29  44 N25G38    29.91F
BROKEN BOW     CLOUDY    53  27  36 N30G41    29.89F
ORD            CLOUDY    53  29  39 NW29G38   29.84F
$$

NEZ041-046>049-061>064-073>077-083>087-192200-
SOUTH CENTRAL NEBRASKA

CITY           SKY/WX    TMP DP  RH WIND       PRES   REMARKS
GRAND ISLAND   CLOUDY    53  30  41 NW26G38   29.85F
HASTINGS       CLOUDY    53  32  44 N28G41    29.85F
KEARNEY *        N/A    N/A N/A N/A MISG        N/A
YORK           PTSUNNY   54  36  50 N21G30    29.80F
$$

NEZ011>018-030>034-042>045-192200-
NORTHEAST NEBRASKA

CITY           SKY/WX    TMP DP  RH WIND       PRES   REMARKS
BLAIR          CLOUDY    49  43  81 NW23G35   29.72R
COLUMBUS *     CLOUDY    55  32  41 N26G35    29.79F
FREMONT        CLOUDY    52  42  68 NW24G33   29.76F
TEKAMAH        LGT RAIN  50  46  86 NW20      29.74S
$$

NEZ050>053-065>068-078-088>093-192200-
SOUTHEAST NEBRASKA

CITY           SKY/WX    TMP DP  RH WIND       PRES   REMARKS
LINCOLN        CLOUDY    52  38  58 N24G33    29.78S
OMAHA EPPLEY   LGT RAIN  51  46  83 N28G39    29.71S
FALLS CITY     CLOUDY    51  47  86 NW22G32   29.69F
PLATTSMOUTH    DRIZZLE   50  46  84 NW24G32   29.70F
$$

NEZ044-045-051>053-067-192200-
OMAHA AREA

CITY           SKY/WX    TMP DP  RH WIND       PRES   REMARKS
OMAHA EPPLEY   LGT RAIN  51  46  83 N28G39    29.71S
BLAIR          CLOUDY    49  43  81 NW23G35   29.72R
FREMONT        CLOUDY    52  42  68 NW24G33   29.76F
OFFUTT AFB     RAIN      50  45  81 NW25G36   29.70F
PLATTSMOUTH    DRIZZLE   50  46  84 NW24G32   29.70F
$$


USA.gov is the U.S. government's official web portal to all federal, state and local government web resources and services.